When you browse on this site, cookies collect data to enhance your experience and personalize the content and advertising you see.
Visit our Privacy Policy to learn more. By continuing to use the site, you agree to this use of cookies and data.
  • în România
  • Lista ţărilor
  • Pe 7 zile
  • Temperatura apei
  • Hartă satelitară
  • Meteo pe hartă
  • Widget-uri
  • user-avatar
    Intrare

    Meteo pe oră la Arnedo

    Astăzi, 16 Iulie, Marţi

    Timp Temperatura Precipitaţii Vânt Presiune Umiditate
    00:00 +16°C° 0 mm 2 m/s 705 mmHg 56%
    01:00 +16°C° 0 mm 2 m/s 705 mmHg 54%
    02:00 +16°C° 0 mm 2 m/s 705 mmHg 53%
    03:00 +15°C° 0 mm 2 m/s 705 mmHg 52%
    04:00 +16°C° 0 mm 2 m/s 705 mmHg 52%
    05:00 +16°C° 0 mm 2 m/s 705 mmHg 52%
    06:00 +18°C° 0 mm 1 m/s 705 mmHg 51%
    07:00 +19°C° 0 mm 1 m/s 705 mmHg 48%
    08:00 +20°C° 0 mm 2 m/s 706 mmHg 45%
    09:00 +21°C° 0 mm 2 m/s 706 mmHg 42%
    10:00 +24°C° 0 mm 2 m/s 706 mmHg 40%
    11:00 +25°C° 0 mm 2 m/s 706 mmHg 38%
    12:00 +27°C° 0 mm 2 m/s 706 mmHg 36%
    13:00 +27°C° 0 mm 2 m/s 706 mmHg 35%
    14:00 +28°C° 0 mm 2 m/s 705 mmHg 33%
    15:00 +29°C° 0 mm 2 m/s 705 mmHg 32%
    16:00 +29°C° 0 mm 2 m/s 705 mmHg 34%
    17:00 +28°C° 0 mm 3 m/s 705 mmHg 37%
    18:00 +28°C° 0 mm 3 m/s 705 mmHg 39%
    19:00 +26°C° 0 mm 3 m/s 705 mmHg 48%
    20:00 +25°C° 0 mm 2 m/s 705 mmHg 58%
    21:00 +23°C° 0 mm 2 m/s 705 mmHg 68%
    22:00 +21°C° 0 mm 2 m/s 705 mmHg 69%
    23:00 +22°C° 0 mm 1 m/s 705 mmHg 70%

    Mâine, 17 Iulie, Miercuri

    Timp Temperatura Precipitaţii Vânt Presiune Umiditate
    00:00 +22°C° 0 mm 1 m/s 705 mmHg 71%
    01:00 +21°C° 0.1 mm 1 m/s 705 mmHg 72%
    02:00 +21°C° 0.1 mm 1 m/s 705 mmHg 73%
    03:00 +20°C° 0.1 mm 1 m/s 704 mmHg 74%
    04:00 +19°C° 0.1 mm 2 m/s 704 mmHg 75%
    05:00 +19°C° 0.1 mm 2 m/s 704 mmHg 76%
    06:00 +18°C° 0.1 mm 2 m/s 704 mmHg 77%
    07:00 +20°C° 0.2 mm 2 m/s 704 mmHg 72%
    08:00 +21°C° 0.2 mm 2 m/s 705 mmHg 67%
    09:00 +23°C° 0.2 mm 2 m/s 705 mmHg 63%
    10:00 +24°C° 0.3 mm 2 m/s 705 mmHg 59%
    11:00 +25°C° 0.3 mm 2 m/s 705 mmHg 56%
    12:00 +27°C° 0.3 mm 2 m/s 705 mmHg 52%
    13:00 +27°C° 0.6 mm 2 m/s 705 mmHg 50%
    14:00 +28°C° 0.6 mm 3 m/s 704 mmHg 49%
    15:00 +29°C° 0.6 mm 3 m/s 704 mmHg 47%
    16:00 +28°C° 0.6 mm 4 m/s 704 mmHg 52%
    17:00 +26°C° 0.6 mm 4 m/s 704 mmHg 57%
    18:00 +25°C° 0.6 mm 5 m/s 704 mmHg 62%
    19:00 +23°C° 0.2 mm 5 m/s 705 mmHg 67%
    20:00 +21°C° 0.2 mm 4 m/s 705 mmHg 73%
    21:00 +19°C° 0.2 mm 3 m/s 705 mmHg 78%
    22:00 +18°C° 0 mm 3 m/s 705 mmHg 79%
    23:00 +18°C° 0 mm 3 m/s 705 mmHg 81%

    Poimâine, 18 Iulie, Joi

    Timp Temperatura Precipitaţii Vânt Presiune Umiditate
    00:00 +17°C° 0 mm 2 m/s 705 mmHg 83%
    01:00 +16°C° 0 mm 3 m/s 704 mmHg 84%
    02:00 +16°C° 0 mm 3 m/s 704 mmHg 86%
    03:00 +16°C° 0 mm 3 m/s 704 mmHg 87%
    04:00 +16°C° 0 mm 3 m/s 704 mmHg 86%
    05:00 +16°C° 0 mm 3 m/s 704 mmHg 84%
    06:00 +16°C° 0 mm 3 m/s 704 mmHg 82%
    07:00 +17°C° 0 mm 3 m/s 704 mmHg 75%
    08:00 +19°C° 0 mm 3 m/s 705 mmHg 69%
    09:00 +21°C° 0 mm 3 m/s 705 mmHg 62%
    10:00 +22°C° 0 mm 3 m/s 705 mmHg 57%
    11:00 +25°C° 0 mm 3 m/s 705 mmHg 53%
    12:00 +26°C° 0 mm 4 m/s 705 mmHg 49%
    13:00 +27°C° 0 mm 4 m/s 705 mmHg 48%
    14:00 +27°C° 0 mm 5 m/s 705 mmHg 47%
    15:00 +28°C° 0 mm 5 m/s 705 mmHg 45%
    16:00 +27°C° 0 mm 5 m/s 705 mmHg 47%
    17:00 +26°C° 0 mm 5 m/s 705 mmHg 49%
    18:00 +25°C° 0 mm 5 m/s 705 mmHg 51%
    19:00 +22°C° 0 mm 4 m/s 705 mmHg 56%
    20:00 +20°C° 0 mm 3 m/s 705 mmHg 61%
    21:00 +18°C° 0 mm 2 m/s 705 mmHg 66%
    22:00 +18°C° 0 mm 2 m/s 705 mmHg 65%
    23:00 +17°C° 0 mm 2 m/s 705 mmHg 64%

    19 Iulie, Vineri

    Timp Temperatura Precipitaţii Vânt Presiune Umiditate
    00:00 +17°C° 0 mm 2 m/s 705 mmHg 64%
    01:00 +16°C° 0 mm 2 m/s 705 mmHg 62%
    02:00 +16°C° 0 mm 2 m/s 705 mmHg 61%
    03:00 +16°C° 0 mm 2 m/s 705 mmHg 59%
    04:00 +16°C° 0 mm 2 m/s 705 mmHg 59%
    05:00 +16°C° 0 mm 2 m/s 705 mmHg 58%
    06:00 +18°C° 0 mm 1 m/s 704 mmHg 57%
    07:00 +18°C° 0 mm 2 m/s 705 mmHg 53%
    08:00 +20°C° 0 mm 2 m/s 705 mmHg 48%
    09:00 +23°C° 0 mm 2 m/s 705 mmHg 43%
    10:00 +25°C° 0 mm 2 m/s 705 mmHg 40%
    11:00 +26°C° 0 mm 2 m/s 705 mmHg 38%
    12:00 +28°C° 0 mm 2 m/s 705 mmHg 35%
    13:00 +29°C° 0 mm 2 m/s 704 mmHg 34%
    14:00 +30°C° 0 mm 2 m/s 704 mmHg 33%
    15:00 +30°C° 0 mm 2 m/s 704 mmHg 32%
    16:00 +30°C° 0 mm 2 m/s 704 mmHg 32%
    17:00 +30°C° 0 mm 2 m/s 703 mmHg 33%
    18:00 +30°C° 0 mm 2 m/s 703 mmHg 34%
    19:00 +28°C° 0 mm 1 m/s 703 mmHg 41%
    20:00 +26°C° 0 mm 1 m/s 703 mmHg 49%
    21:00 +24°C° 0 mm 1 m/s 703 mmHg 56%
    22:00 +23°C° 0 mm 1 m/s 703 mmHg 60%
    23:00 +23°C° 0 mm 1 m/s 703 mmHg 63%

    20 Iulie, Sâmbătă

    Timp Temperatura Precipitaţii Vânt Presiune Umiditate
    00:00 +22°C° 0 mm 1 m/s 703 mmHg 67%
    01:00 +21°C° 0.3 mm 1 m/s 703 mmHg 71%
    02:00 +21°C° 0.3 mm 1 m/s 702 mmHg 75%
    03:00 +20°C° 0.3 mm 1 m/s 702 mmHg 79%
    04:00 +21°C° 0.1 mm 1 m/s 702 mmHg 79%
    05:00 +21°C° 0.1 mm 1 m/s 703 mmHg 80%
    06:00 +21°C° 0.1 mm 1 m/s 703 mmHg 80%
    07:00 +22°C° 0 mm 1 m/s 703 mmHg 76%
    08:00 +23°C° 0 mm 1 m/s 703 mmHg 71%
    09:00 +24°C° 0 mm 1 m/s 704 mmHg 67%
    10:00 +25°C° 0 mm 2 m/s 704 mmHg 63%
    11:00 +26°C° 0 mm 2 m/s 704 mmHg 60%
    12:00 +27°C° 0 mm 2 m/s 705 mmHg 56%
    13:00 +28°C° 0 mm 3 m/s 705 mmHg 55%
    14:00 +28°C° 0 mm 4 m/s 705 mmHg 54%
    15:00 +29°C° 0 mm 5 m/s 705 mmHg 52%
    16:00 +28°C° 0 mm 5 m/s 705 mmHg 56%
    17:00 +26°C° 0 mm 5 m/s 705 mmHg 59%
    18:00 +25°C° 0 mm 5 m/s 705 mmHg 62%
    19:00 +23°C° 0 mm 5 m/s 705 mmHg 67%
    20:00 +21°C° 0 mm 4 m/s 706 mmHg 72%
    21:00 +20°C° 0 mm 3 m/s 706 mmHg 77%
    22:00 +19°C° 0 mm 3 m/s 706 mmHg 79%
    23:00 +19°C° 0 mm 3 m/s 706 mmHg 82%

    21 Iulie, Duminică

    Timp Temperatura Precipitaţii Vânt Presiune Umiditate
    00:00 +18°C° 0 mm 3 m/s 706 mmHg 84%
    01:00 +18°C° 0 mm 3 m/s 706 mmHg 85%
    02:00 +17°C° 0 mm 3 m/s 706 mmHg 86%
    03:00 +17°C° 0 mm 2 m/s 706 mmHg 87%
    04:00 +17°C° 0 mm 2 m/s 706 mmHg 86%
    05:00 +17°C° 0 mm 2 m/s 706 mmHg 85%
    06:00 +17°C° 0 mm 2 m/s 706 mmHg 84%
    07:00 +19°C° 0 mm 2 m/s 707 mmHg 78%
    08:00 +20°C° 0 mm 3 m/s 707 mmHg 71%
    09:00 +22°C° 0 mm 3 m/s 707 mmHg 64%
    10:00 +24°C° 0 mm 2 m/s 708 mmHg 60%
    11:00 +26°C° 0 mm 2 m/s 708 mmHg 57%
    12:00 +27°C° 0 mm 2 m/s 708 mmHg 53%
    13:00 +28°C° 0 mm 2 m/s 708 mmHg 50%
    14:00 +29°C° 0 mm 2 m/s 707 mmHg 48%
    15:00 +30°C° 0 mm 2 m/s 707 mmHg 45%
    16:00 +30°C° 0 mm 3 m/s 707 mmHg 48%
    17:00 +29°C° 0 mm 3 m/s 707 mmHg 50%
    18:00 +28°C° 0 mm 4 m/s 707 mmHg 53%
    19:00 +27°C° 0 mm 3 m/s 707 mmHg 60%
    20:00 +25°C° 0 mm 3 m/s 707 mmHg 68%
    21:00 +23°C° 0 mm 2 m/s 707 mmHg 76%
    22:00 +21°C° 0 mm 2 m/s 707 mmHg 78%
    23:00 +21°C° 0 mm 2 m/s 707 mmHg 80%
    Arată mai mult